Flag for Angola Weather past 2 weeks in Cabinda, Angola

Now
79 °F

Passing clouds.


Feels Like: 82 °F
Forecast: 77 / 83 °F
Wind: 7 mph from Southeast

Location: Pointe Airport-Noire

Current Time: Dec 22, 2014 at 10:44:49 PM

Latest Report: Dec 22, 2014 at 10:00 PM


Visibility: N/A

Pressure: 29.89 "Hg

Humidity: 89%

Dew point: 75 °F

Location of CabindaLocation

Historic Weather in Cabinda — Graph

°F

Cabinda temperature yesterday

Maximum temperature yesterday: 82 °F (at 2:00 PM)
Minimum temperature yesterday: 79 °F (at 12:00 AM)
Average temperature yesterday: 80 °F

Past Weeks' High & Low Weather Summary

 TemperatureHumidityPressure
High88 °F (Dec 13, 11:00 AM)100% (Dec 14, 6:00 AM)29.95 "Hg (Dec 14, 6:00 AM)
Low73 °F (Dec 15, 2:00 PM)16% (Dec 17, 12:00 PM)29.74 "Hg (Dec 10, 4:00 PM)
Average81 °F83%29.85 "Hg
* Reported Dec 7 9:00 PM — Dec 22 9:00 PM, Cabinda, Weather by CustomWeather, © 2014

Note: Actual official high and low records may vary slightly from our data, if they occured in-between our weather recording intervals... More about our weather records

Advertising

Cabinda weather history for previous 24 hours

 ConditionsComfort  
Time TempWeatherWind HumidityBarometerVisibility
9:00 PM
Dec 22
79 °FPassing clouds.7 mph84%29.86 "HgN/A
8:00 PM79 °FPassing clouds.7 mph89%29.86 "HgN/A
7:00 PM81 °FPassing clouds.6 mph84%29.83 "HgN/A
6:00 PM81 °FPassing clouds.10 mph79%29.80 "HgN/A
5:00 PM82 °FScattered clouds.12 mph74%29.80 "HgN/A
4:00 PM82 °FBroken clouds.12 mph79%29.83 "HgN/A
3:00 PM84 °FBroken clouds.10 mph74%29.83 "HgN/A
2:00 PM84 °FBroken clouds.10 mph70%29.86 "HgN/A
1:00 PM84 °FBroken clouds.12 mph70%29.89 "HgN/A
12:00 PM82 °FBroken clouds.12 mph74%29.92 "HgN/A
11:00 AM82 °FBroken clouds.12 mph74%29.95 "HgN/A
10:00 AM84 °FScattered clouds.12 mph66%29.95 "HgN/A
9:00 AM81 °FScattered clouds.3 mph84%29.95 "HgN/A
8:00 AM79 °FPassing clouds.5 mph89%29.92 "HgN/A
7:00 AM77 °FPassing clouds.3 mph94%29.89 "Hg5 mi
6:00 AM77 °FScattered clouds.2 mph94%29.89 "Hg5 mi
5:00 AM77 °FPassing clouds.3 mph89%29.89 "Hg5 mi
4:00 AM79 °FPassing clouds.5 mph89%29.86 "Hg5 mi
3:00 AM79 °FPassing clouds.6 mph84%29.86 "Hg5 mi
2:00 AM79 °FPassing clouds.5 mph84%29.86 "Hg5 mi
1:00 AM79 °FPassing clouds.7 mph84%29.89 "Hg5 mi
12:00 AM79 °FPassing clouds.5 mph89%29.92 "Hg5 mi
11:00 PM
Dec 21
81 °FPassing clouds.7 mph84%29.92 "Hg5 mi
10:00 PM81 °FPassing clouds.6 mph84%29.92 "Hg5 mi
Weather by CustomWeather, © 2014

See weather overviewHow to use our weather pages